This demonstration page uses our WeatherBlox Daily Observations layout. Learn more.

Left ArrowRight Arrow

41.12389, -100.76542

Hourly Observations for July 31, 2022

Temp ( °F °C ) Dew Point ( °F °C ) Humidity (%) Winds ( mph kmh ) Pressure ( in mb ) Visibility ( mi km ) Precip ( " mm )
12:53 am 00:53 Clear 70 21.1 62 16.7 76 76 SSW 3 6 29.99 1016 10 16 0.00 0.00
1:53 am 01:53 Clear 68 20 62 16.7 81 81 S 7 11 29.98 1015 10 16 0.00 0.00
2:53 am 02:53 Clear 68 20 63 17.2 84 84 S 6 9 29.96 1015 10 16 0.00 0.00
3:53 am 03:53 Clear 67 19.4 62 16.7 84 84 S 5 7 29.95 1014 10 16 0.00 0.00
4:53 am 04:53 Clear 66 18.9 62 16.7 87 87 Calm 29.95 1014 10 16 0.00 0.00
5:53 am 05:53 Clear 66 18.9 62 16.7 87 87 Calm 29.94 1014 10 16 0.00 0.00
6:53 am 06:53 Sunny 66 18.9 62 16.7 87 87 Calm 29.94 1014 9 14 0.00 0.00
7:53 am 07:53 Mostly Sunny 68 20 64 17.8 87 87 SW 8 13 29.94 1014 9 14 0.00 0.00
8:05 am 08:05 Mostly Cloudy 67 19.4 64 17.8 91 91 SW 10 17 29.93 1013 7 11 0.00 0.00
8:20 am 08:20 Cloudy with Mist and Fog 67 19.4 64 17.8 91 91 SW 9 15 29.92 1013 5 8 0.00 0.00
8:53 am 08:53 Cloudy with Mist and Fog 68 20 65 18.3 90 90 SW 7 11 29.95 1014 5 8 0.00 0.00
9:53 am 09:53 Cloudy 70 21.1 66 18.9 87 87 W 8 13 29.97 1015 8 13 0.00 0.00
10:06 am 10:06 Cloudy 71 21.7 67 19.4 87 87 WSW 8 13 29.91 1013 9 14 0.00 0.00
10:53 am 10:53 Cloudy 74 23.3 68 20 82 82 SW 6 9 29.96 1015 9 14 0.00 0.00
11:26 am 11:26 Partly Cloudy 78 25.6 70 21.1 76 76 W 9 15 29.88 1012 10 16 0.00 0.00
11:53 am 11:53 Sunny 81 27.2 70 21.1 69 69 W 7 11 29.96 1015 10 16 0.00 0.00
12:53 pm 12:53 Sunny 86 30 70 21.1 59 59 WSW 5 7 29.94 1014 10 16 0.00 0.00
1:53 pm 13:53 Sunny 91 32.8 67 19.4 45 45 WNW 5 7 29.93 1014 10 16 0.00 0.00
2:53 pm 14:53 Sunny 94 34.4 67 19.4 41 41 N 5 7 29.93 1013 10 16 0.00 0.00
3:53 pm 15:53 Sunny 93 33.9 62 16.7 36 36 WNW 5 7 29.91 1013 10 16 0.00 0.00
4:53 pm 16:53 Sunny 97 36.1 60 15.6 29 29 VRB 3 6 29.90 1013 10 16 0.00 0.00
5:53 pm 17:53 Sunny 91 32.8 63 17.2 39 39 E 6 9 29.89 1012 10 16 0.00 0.00
6:53 pm 18:53 Sunny 90 32.2 57 13.9 33 33 E 8 13 29.90 1012 10 16 0.00 0.00
7:53 pm 19:53 Sunny 85 29.4 72 22.2 65 65 E 7 11 29.91 1013 10 16 0.00 0.00
8:53 pm 20:53 Partly Cloudy 83 28.3 70 21.1 65 65 SSE 6 9 29.94 1014 10 16 0.00 0.00
9:53 pm 21:53 Clear 77 25 58 14.4 52 52 N 6 9 29.97 1015 10 16 0.00 0.00
10:53 pm 22:53 Clear 72 22.2 58 14.4 61 61 N 5 7 29.96 1014 10 16 0.00 0.00
11:53 pm 23:53 Clear 67 19.4 60 15.6 79 79 Calm 29.94 1014 10 16 0.00 0.00

Powered by AerisWeather